• In Russia
  • List of Countries
  • For 7 days
  • Water Temperature
  • Satellite Maps
  • Weather Map
  • Weather Widgets
  • user-avatar
    Login

    Hourly Weather Neuquén

    Today, 21 June, Thursday

    Time Temperature Precipitation Wind Pressure Humidity
    00:00 +7°C° 0 mm 11 mps 734 mmHg 44%
    01:00 +7°C° 0 mm 10 mps 734 mmHg 46%
    02:00 +6°C° 0 mm 10 mps 735 mmHg 47%
    03:00 +6°C° 0 mm 10 mps 735 mmHg 49%
    04:00 +6°C° 0 mm 10 mps 735 mmHg 50%
    05:00 +6°C° 0 mm 9 mps 736 mmHg 52%
    06:00 +6°C° 0 mm 8 mps 737 mmHg 54%
    07:00 +6°C° 0 mm 7 mps 737 mmHg 56%
    08:00 +7°C° 0 mm 8 mps 738 mmHg 52%
    09:00 +10°C° 0 mm 9 mps 738 mmHg 47%
    10:00 +11°C° 0 mm 10 mps 739 mmHg 42%
    11:00 +11°C° 0 mm 10 mps 738 mmHg 40%
    12:00 +12°C° 0 mm 9 mps 738 mmHg 38%
    13:00 +13°C° 0 mm 9 mps 737 mmHg 36%
    14:00 +12°C° 0 mm 8 mps 737 mmHg 37%
    15:00 +12°C° 0 mm 7 mps 737 mmHg 38%
    16:00 +13°C° 0 mm 6 mps 736 mmHg 39%
    17:00 +11°C° 0 mm 6 mps 736 mmHg 41%
    18:00 +10°C° 0 mm 7 mps 736 mmHg 43%
    19:00 +9°C° 0 mm 7 mps 736 mmHg 45%
    20:00 +9°C° 0 mm 7 mps 736 mmHg 46%
    21:00 +9°C° 0 mm 7 mps 735 mmHg 47%
    22:00 +8°C° 0 mm 6 mps 735 mmHg 48%
    23:00 +8°C° 0 mm 6 mps 735 mmHg 49%

    Tomorrow, 22 June, Friday

    Time Temperature Precipitation Wind Pressure Humidity
    00:00 +8°C° 0 mm 5 mps 734 mmHg 50%
    01:00 +8°C° 0 mm 4 mps 734 mmHg 51%
    02:00 +7°C° 0 mm 4 mps 733 mmHg 52%
    03:00 +7°C° 0 mm 4 mps 733 mmHg 53%
    04:00 +7°C° 0 mm 4 mps 733 mmHg 54%
    05:00 +7°C° 0 mm 4 mps 732 mmHg 55%
    06:00 +6°C° 0 mm 4 mps 732 mmHg 56%
    07:00 +6°C° 0 mm 4 mps 732 mmHg 57%
    08:00 +8°C° 0 mm 4 mps 732 mmHg 51%
    09:00 +9°C° 0 mm 5 mps 732 mmHg 46%
    10:00 +11°C° 0 mm 6 mps 731 mmHg 40%
    11:00 +12°C° 0 mm 7 mps 731 mmHg 37%
    12:00 +13°C° 0 mm 8 mps 730 mmHg 34%
    13:00 +15°C° 0 mm 9 mps 729 mmHg 31%
    14:00 +15°C° 0 mm 8 mps 728 mmHg 34%
    15:00 +13°C° 0 mm 8 mps 728 mmHg 36%
    16:00 +14°C° 0 mm 7 mps 728 mmHg 38%
    17:00 +12°C° 0 mm 7 mps 728 mmHg 41%
    18:00 +12°C° 0 mm 7 mps 728 mmHg 43%
    19:00 +11°C° 0 mm 7 mps 729 mmHg 45%
    20:00 +10°C° 0 mm 7 mps 729 mmHg 48%
    21:00 +10°C° 0 mm 7 mps 730 mmHg 51%
    22:00 +9°C° 0 mm 7 mps 731 mmHg 54%
    23:00 +9°C° 0 mm 7 mps 731 mmHg 54%

    Day after tomorrow, 23 June, Saturday

    Time Temperature Precipitation Wind Pressure Humidity
    00:00 +8°C° 0 mm 7 mps 732 mmHg 54%
    01:00 +7°C° 0 mm 8 mps 732 mmHg 54%
    02:00 +6°C° 0 mm 8 mps 733 mmHg 55%
    03:00 +6°C° 0 mm 7 mps 733 mmHg 56%
    04:00 +5°C° 0 mm 7 mps 734 mmHg 57%
    05:00 +5°C° 0 mm 6 mps 734 mmHg 58%
    06:00 +4°C° 0 mm 6 mps 735 mmHg 60%
    07:00 +4°C° 0 mm 6 mps 736 mmHg 61%
    08:00 +4°C° 0 mm 6 mps 737 mmHg 56%
    09:00 +5°C° 0 mm 6 mps 738 mmHg 52%
    10:00 +5°C° 0 mm 6 mps 739 mmHg 47%
    11:00 +6°C° 0 mm 5 mps 739 mmHg 46%
    12:00 +6°C° 0 mm 4 mps 739 mmHg 45%
    13:00 +7°C° 0 mm 3 mps 739 mmHg 44%
    14:00 +7°C° 0 mm 3 mps 740 mmHg 44%
    15:00 +7°C° 0 mm 2 mps 740 mmHg 44%
    16:00 +7°C° 0 mm 2 mps 740 mmHg 44%
    17:00 +7°C° 0 mm 2 mps 740 mmHg 47%
    18:00 +6°C° 0 mm 2 mps 741 mmHg 49%
    19:00 +5°C° 0 mm 2 mps 741 mmHg 52%
    20:00 +4°C° 0 mm 3 mps 741 mmHg 53%
    21:00 +4°C° 0 mm 3 mps 741 mmHg 53%
    22:00 +4°C° 0 mm 3 mps 741 mmHg 54%
    23:00 +4°C° 0 mm 3 mps 741 mmHg 56%

    24 June, Sunday

    Time Temperature Precipitation Wind Pressure Humidity
    00:00 +3°C° 0 mm 3 mps 741 mmHg 57%
    01:00 +3°C° 0 mm 3 mps 740 mmHg 58%
    02:00 +3°C° 0 mm 3 mps 740 mmHg 59%
    03:00 +3°C° 0 mm 3 mps 739 mmHg 60%
    04:00 +2°C° 0 mm 3 mps 738 mmHg 61%
    05:00 +2°C° 0 mm 3 mps 738 mmHg 60%
    06:00 +3°C° 0 mm 2 mps 738 mmHg 60%
    07:00 +3°C° 0 mm 2 mps 738 mmHg 59%
    08:00 +5°C° 0 mm 2 mps 738 mmHg 52%
    09:00 +6°C° 0 mm 2 mps 737 mmHg 44%
    10:00 +8°C° 0 mm 3 mps 737 mmHg 37%
    11:00 +9°C° 0 mm 3 mps 737 mmHg 32%
    12:00 +10°C° 0 mm 3 mps 736 mmHg 28%
    13:00 +11°C° 0 mm 4 mps 735 mmHg 23%
    14:00 +11°C° 0 mm 4 mps 735 mmHg 24%
    15:00 +11°C° 0 mm 3 mps 735 mmHg 25%
    16:00 +10°C° 0 mm 3 mps 734 mmHg 26%
    17:00 +10°C° 0 mm 4 mps 735 mmHg 28%
    18:00 +8°C° 0 mm 4 mps 735 mmHg 30%
    19:00 +8°C° 0 mm 5 mps 735 mmHg 32%
    20:00 +8°C° 0 mm 5 mps 735 mmHg 37%
    21:00 +8°C° 0 mm 6 mps 735 mmHg 42%
    22:00 +8°C° 0 mm 6 mps 735 mmHg 47%
    23:00 +7°C° 0 mm 6 mps 735 mmHg 46%

    25 June, Monday

    Time Temperature Precipitation Wind Pressure Humidity
    00:00 +7°C° 0 mm 6 mps 735 mmHg 46%
    01:00 +7°C° 0 mm 6 mps 734 mmHg 46%
    02:00 +7°C° 0 mm 6 mps 734 mmHg 47%
    03:00 +7°C° 0 mm 6 mps 734 mmHg 49%
    04:00 +7°C° 0 mm 6 mps 734 mmHg 50%
    05:00 +7°C° 0 mm 6 mps 734 mmHg 52%
    06:00 +7°C° 0 mm 5 mps 735 mmHg 54%
    07:00 +6°C° 0 mm 5 mps 735 mmHg 56%
    08:00 +8°C° 0 mm 6 mps 735 mmHg 51%
    09:00 +10°C° 0 mm 7 mps 735 mmHg 46%
    10:00 +11°C° 0 mm 7 mps 735 mmHg 41%
    11:00 +12°C° 0 mm 7 mps 734 mmHg 39%
    12:00 +14°C° 0 mm 7 mps 733 mmHg 36%
    13:00 +15°C° 0 mm 7 mps 733 mmHg 33%
    14:00 +14°C° 0 mm 7 mps 732 mmHg 34%
    15:00 +14°C° 0 mm 6 mps 732 mmHg 35%
    16:00 +13°C° 0 mm 5 mps 732 mmHg 36%
    17:00 +12°C° 0 mm 5 mps 732 mmHg 39%
    18:00 +12°C° 0 mm 5 mps 732 mmHg 42%
    19:00 +10°C° 0 mm 5 mps 732 mmHg 46%
    20:00 +11°C° 0 mm 4 mps 732 mmHg 46%
    21:00 +10°C° 0 mm 4 mps 732 mmHg 46%
    22:00 +10°C° 0 mm 4 mps 732 mmHg 46%
    23:00 +10°C° 0 mm 4 mps 731 mmHg 45%

    26 June, Tuesday

    Time Temperature Precipitation Wind Pressure Humidity
    00:00 +10°C° 0 mm 4 mps 731 mmHg 44%
    01:00 +10°C° 0 mm 4 mps 731 mmHg 43%
    02:00 +10°C° 0 mm 4 mps 731 mmHg 43%
    03:00 +10°C° 0 mm 4 mps 731 mmHg 43%
    04:00 +10°C° 0 mm 4 mps 730 mmHg 43%
    05:00 +9°C° 0 mm 5 mps 730 mmHg 43%
    06:00 +9°C° 0 mm 5 mps 730 mmHg 43%
    07:00 +9°C° 0 mm 5 mps 730 mmHg 43%
    08:00 +10°C° 0 mm 6 mps 730 mmHg 41%
    09:00 +11°C° 0 mm 6 mps 730 mmHg 39%
    10:00 +12°C° 0 mm 7 mps 730 mmHg 38%
    11:00 +14°C° 0 mm 7 mps 729 mmHg 38%
    12:00 +14°C° 0 mm 6 mps 728 mmHg 38%
    13:00 +14°C° 0 mm 6 mps 728 mmHg 38%
    14:00 +14°C° 0 mm 5 mps 728 mmHg 37%
    15:00 +14°C° 0 mm 4 mps 727 mmHg 35%
    16:00 +14°C° 0 mm 3 mps 727 mmHg 33%
    17:00 +13°C° 0 mm 4 mps 727 mmHg 33%
    18:00 +13°C° 0 mm 5 mps 727 mmHg 32%
    19:00 +13°C° 0 mm 5 mps 726 mmHg 32%
    20:00 +13°C° 0 mm 6 mps 726 mmHg 31%
    21:00 +12°C° 0 mm 7 mps 725 mmHg 31%
    22:00 +14°C° 0 mm 7 mps 725 mmHg 30%
    23:00 +13°C° 0 mm 8 mps 725 mmHg 30%
    Show more